Date String (YYYY-MM-DD hh:mm:ss) UTC,Instrument flags,absolute air pressure of the measurement (hPa),sample flow rate (lpm),inlet stack bypass flow (lpm),air temperature of the measurement (°C),ambient temperature measured by the external sensor (°C),aerosol sample conditioner tube jacket temperature (°C),OPC LED temperature (°C),internal box temperature (°C),relative humidity of the measurement (%),span deviation,mass concentration of particles derived from Lorenz-Mie calculation of OPC scattering (μg/m³),mass concentration of particles derived from Lorenz-Mie calculation of OPC scattering (μg/m³),mass concentration of particles derived from Lorenz-Mie calculation of OPC scattering (μg/m³)
DateTimeUTC,F1_M11,P_M11,Q1_M11,Q2_M11,T1_M11,T2_M11,T3_M11,T4_M11,T5_M11,U1_M11,ZSPAN_M11,X2_M11,X0_M11,X1_M11
2024-06-15 22:00:00,SystemResetWarning,0823.7,5.00,000.00,028.7,027.5,000.0,037.0,030.4,017.2,0000.0,0005.60,0014.58,0004.83
2024-06-15 22:01:00,SystemResetWarning,0823.6,5.00,000.00,028.8,027.9,000.0,037.0,030.6,016.7,0000.0,0005.61,0014.82,0004.82
2024-06-15 22:02:00,SystemResetWarning,0823.6,5.00,000.00,028.8,028.2,000.0,037.0,030.7,016.4,0000.0,0005.58,0014.86,0004.80
2024-06-15 22:03:00,SystemResetWarning,0823.6,5.00,000.00,028.9,028.4,000.0,037.1,030.8,016.5,0000.0,0005.57,0015.23,0004.78
2024-06-15 22:04:00,SystemResetWarning,0823.5,4.99,000.00,029.0,028.6,000.0,037.1,030.9,017.0,0000.0,0005.56,0015.00,0004.76
2024-06-15 22:05:00,SystemResetWarning,0823.5,5.00,000.00,029.1,028.8,000.0,037.2,031.0,016.6,0000.0,0005.54,0014.31,0004.73
2024-06-15 22:06:00,SystemResetWarning,0823.4,4.99,000.00,029.2,028.6,000.0,037.2,030.9,016.5,0000.0,0005.48,0013.51,0004.69
2024-06-15 22:07:00,SystemResetWarning,0823.4,5.00,000.00,028.9,026.4,000.0,037.3,029.9,016.9,0000.0,0005.47,0014.46,0004.65
2024-06-15 22:08:00,SystemResetWarning,0823.4,5.01,000.00,028.6,025.5,000.0,037.3,029.4,017.4,0000.0,0005.42,0014.22,0004.62
2024-06-15 22:09:00,SystemResetWarning,0823.4,5.00,000.00,028.5,026.1,000.0,037.2,029.6,017.5,0000.0,0005.38,0013.89,0004.60
2024-06-15 22:10:00,SystemResetWarning,0823.5,5.00,000.00,028.5,026.5,000.0,037.1,029.9,017.6,0000.0,0005.37,0013.93,0004.59
2024-06-15 22:11:00,SystemResetWarning,0823.6,5.00,000.00,028.6,027.0,000.0,037.1,030.1,018.1,0000.0,0005.33,0013.42,0004.57
2024-06-15 22:12:00,SystemResetWarning,0823.6,5.01,000.00,028.7,027.4,000.0,037.0,030.3,018.1,0000.0,0005.26,0012.96,0004.54
2024-06-15 22:13:00,SystemResetWarning,0823.6,4.99,000.00,028.7,027.8,000.0,037.0,030.5,018.0,0000.0,0005.25,0012.95,0004.52
2024-06-15 22:14:00,SystemResetWarning,0823.6,5.00,000.00,028.8,028.1,000.0,037.0,030.7,017.5,0000.0,0005.23,0012.53,0004.51
2024-06-15 22:15:00,SystemResetWarning,0823.7,5.00,000.00,028.9,028.3,000.0,037.1,030.8,017.3,0000.0,0005.25,0012.80,0004.51
2024-06-15 22:16:00,SystemResetWarning,0823.6,5.00,000.00,029.0,028.5,000.0,037.1,030.9,017.3,0000.0,0005.25,0013.06,0004.52
2024-06-15 22:17:00,SystemResetWarning,0823.7,5.01,000.00,029.1,028.8,000.0,037.1,031.0,017.4,0000.0,0005.28,0013.13,0004.54
2024-06-15 22:18:00,SystemResetWarning,0823.7,4.99,000.00,029.2,028.8,000.0,037.2,031.0,017.5,0000.0,0005.27,0012.94,0004.56
2024-06-15 22:19:00,SystemResetWarning,0823.7,4.98,000.00,029.0,027.1,000.0,037.3,030.2,017.4,0000.0,0005.26,0013.09,0004.57
2024-06-15 22:20:00,SystemResetWarning,0823.7,5.02,000.00,028.6,025.5,000.0,037.3,029.4,017.6,0000.0,0005.28,0012.32,0004.57
2024-06-15 22:21:00,SystemResetWarning,0823.8,5.01,000.00,028.5,026.0,000.0,037.2,029.5,018.0,0000.0,0005.29,0012.06,0004.56
2024-06-15 22:22:00,SystemResetWarning,0823.8,5.00,000.00,028.5,026.4,000.0,037.1,029.8,018.1,0000.0,0005.31,0012.21,0004.56
2024-06-15 22:23:00,SystemResetWarning,0823.8,5.00,000.00,028.6,026.9,000.0,037.1,030.1,018.1,0000.0,0005.35,0012.70,0004.57
2024-06-15 22:24:00,SystemResetWarning,0823.8,4.99,000.00,028.6,027.3,000.0,037.0,030.3,018.0,0000.0,0005.39,0012.76,0004.57
2024-06-15 22:25:00,SystemResetWarning,0823.8,5.00,000.00,028.7,027.7,000.0,037.0,030.5,018.0,0000.0,0005.42,0012.39,0004.59
2024-06-15 22:26:00,SystemResetWarning,0823.8,5.00,000.00,028.8,028.0,000.0,037.0,030.6,018.0,0000.0,0005.41,0012.17,0004.59
2024-06-15 22:27:00,SystemResetWarning,0823.8,5.01,000.00,028.9,028.2,000.0,037.0,030.8,018.5,0000.0,0005.36,0012.13,0004.59
2024-06-15 22:28:00,SystemResetWarning,0823.8,4.99,000.00,029.0,028.5,000.0,037.1,030.9,018.4,0000.0,0005.33,0011.96,0004.59
2024-06-15 22:29:00,SystemResetWarning,0823.8,4.99,000.00,029.1,028.7,000.0,037.1,031.0,018.3,0000.0,0005.33,0010.82,0004.58
2024-06-15 22:30:00,SystemResetWarning,0823.8,5.00,000.00,029.2,028.8,000.0,037.2,031.1,017.6,0000.0,0005.34,0011.63,0004.58
2024-06-15 22:31:00,SystemResetWarning,0823.7,4.99,000.00,029.1,027.5,000.0,037.3,030.5,017.1,0000.0,0005.36,0011.66,0004.59
2024-06-15 22:32:00,SystemResetWarning,0823.5,5.00,000.00,028.8,025.4,000.0,037.3,029.5,017.6,0000.0,0005.33,0012.67,0004.60
2024-06-15 22:33:00,SystemResetWarning,0823.3,5.02,000.00,028.5,025.6,000.0,037.2,029.5,017.0,0000.0,0005.35,0012.99,0004.60
2024-06-15 22:34:00,SystemResetWarning,0823.4,5.00,000.00,028.5,026.2,000.0,037.2,029.7,015.2,0000.0,0005.37,0013.27,0004.58
2024-06-15 22:35:00,SystemResetWarning,0823.4,5.00,000.00,028.5,026.6,000.0,037.1,030.0,013.2,0000.0,0005.34,0013.35,0004.55
2024-06-15 22:36:00,SystemResetWarning,0823.3,5.00,000.00,028.6,027.1,000.0,037.0,030.2,013.3,0000.0,0005.25,0013.27,0004.49
2024-06-15 22:37:00,SystemResetWarning,0823.3,4.99,000.00,028.7,027.5,000.0,037.0,030.4,013.4,0000.0,0005.17,0013.31,0004.44
2024-06-15 22:38:00,SystemResetWarning,0823.3,5.00,000.00,028.7,027.8,000.0,037.0,030.5,013.4,0000.0,0005.16,0013.12,0004.40
2024-06-15 22:39:00,SystemResetWarning,0823.4,5.00,000.00,028.8,028.1,000.0,037.0,030.7,013.4,0000.0,0005.13,0013.45,0004.35
2024-06-15 22:40:00,SystemResetWarning,0823.3,5.01,000.00,028.9,028.4,000.0,037.0,030.8,014.7,0000.0,0005.09,0013.69,0004.31
2024-06-15 22:41:00,SystemResetWarning,0823.3,5.00,000.00,029.0,028.6,000.0,037.1,030.9,014.9,0000.0,0005.05,0013.67,0004.26
2024-06-15 22:42:00,SystemResetWarning,0823.3,5.01,000.00,029.1,028.8,000.0,037.1,031.0,014.7,0000.0,0004.95,0013.79,0004.21
2024-06-15 22:43:00,SystemResetWarning,0823.3,4.99,000.00,029.2,028.8,000.0,037.2,031.1,015.0,0000.0,0004.90,0012.55,0004.18
2024-06-15 22:44:00,SystemResetWarning,0823.2,4.98,000.00,029.1,027.2,000.0,037.3,030.3,015.5,0000.0,0004.85,0012.19,0004.14
2024-06-15 22:45:00,SystemResetWarning,0823.1,5.02,000.00,028.7,025.6,000.0,037.3,029.5,015.9,0000.0,0004.76,0011.62,0004.12
2024-06-15 22:46:00,SystemResetWarning,0823.1,5.00,000.00,028.6,026.0,000.0,037.3,029.7,015.4,0000.0,0004.73,0012.04,0004.12
2024-06-15 22:47:00,SystemResetWarning,0823.2,4.99,000.00,028.6,026.5,000.0,037.2,029.9,016.4,0000.0,0004.74,0012.10,0004.13
2024-06-15 22:48:00,SystemResetWarning,0823.3,5.00,000.00,028.6,027.0,000.0,037.1,030.2,016.2,0000.0,0004.77,0011.96,0004.16
2024-06-15 22:49:00,SystemResetWarning,0823.2,5.01,000.00,028.7,027.4,000.0,037.1,030.4,015.5,0000.0,0004.76,0011.84,0004.17
2024-06-15 22:50:00,SystemResetWarning,0823.2,4.99,000.00,028.8,027.8,000.0,037.1,030.6,016.8,0000.0,0004.76,0011.44,0004.18
2024-06-15 22:51:00,SystemResetWarning,0823.2,4.99,000.00,028.9,028.1,000.0,037.1,030.7,016.4,0000.0,0004.77,0010.93,0004.20
2024-06-15 22:52:00,SystemResetWarning,0823.3,5.00,000.00,029.0,028.4,000.0,037.1,030.8,015.4,0000.0,0004.78,0010.57,0004.21
2024-06-15 22:53:00,SystemResetWarning,0823.3,5.00,000.00,029.1,028.6,000.0,037.2,030.9,015.7,0000.0,0004.78,0009.58,0004.21
2024-06-15 22:54:00,SystemResetWarning,0823.1,4.99,000.00,029.1,028.4,000.0,037.2,030.8,015.3,0000.0,0004.78,0009.87,0004.22
2024-06-15 22:55:00,SystemResetWarning,0823.1,5.01,000.00,028.9,026.4,000.0,037.3,029.9,014.8,0000.0,0004.80,0009.81,0004.22
2024-06-15 22:56:00,SystemResetWarning,0823.1,5.02,000.00,028.6,025.5,000.0,037.2,029.5,015.3,0000.0,0004.80,0009.78,0004.21
2024-06-15 22:57:00,SystemResetWarning,0823.0,5.00,000.00,028.5,026.1,000.0,037.2,029.7,015.6,0000.0,0004.82,0009.63,0004.20
2024-06-15 22:58:00,SystemResetWarning,0823.0,5.00,000.00,028.5,026.5,000.0,037.1,029.9,016.0,0000.0,0004.81,0010.00,0004.20
2024-06-15 22:59:00,SystemResetWarning,0823.1,5.01,000.00,028.6,027.0,000.0,037.1,030.2,016.5,0000.0,0004.83,0010.33,0004.21
